www.pogodaiklimat.ru
ПОГОДА в Гуиннере
Время
и дата
23:15 14.04
23:55 14.04
00:15 15.04
00:35 15.04
00:55 15.04
01:15 15.04
01:35 15.04
01:55 15.04
02:15 15.04
02:35 15.04
02:55 15.04
03:15 15.04
03:35 15.04
03:55 15.04
04:15 15.04
04:35 15.04
04:55 15.04
05:15 15.04
05:35 15.04
05:55 15.04
06:15 15.04
06:35 15.04
06:55 15.04
07:15 15.04
07:35 15.04
07:55 15.04
08:15 15.04
08:35 15.04
08:55 15.04
09:15 15.04
09:35 15.04
09:55 15.04
10:15 15.04
10:35 15.04
10:55 15.04
11:15 15.04
11:35 15.04
11:55 15.04
12:15 15.04
12:35 15.04
12:55 15.04
13:15 15.04
13:35 15.04
13:55 15.04
14:15 15.04
14:35 15.04
14:55 15.04
15:15 15.04
Ветер
(напр.,м/с)
Видим. Явления Облачность Т
(С)
Тd
(С)
f
(%)
Тe
(С)
Тes
(С)
Комфортность P
(гПа)
Po
(гПа)
Тmin
(С)
Tmax
(С)
R
(мм)
R24
(мм)
S
(см)
С 2
{4}
16 км 10/10 270 м -2.0 -2.0 100 -9 -9 980.2
С 2 16 км 10/10 270 м -1.0 -1.0 100 -7 -7 980.2
С 2 16 км 10/10 270 м -2.0 -2.0 100 -9 -9 980.2
С 2 16 км 10/10 330 м -2.0 -2.0 100 -8 -8 980.2
С 2 16 км 10/10 330 м -1.0 -1.0 100 -7 -7 980.2
С 2 16 км 10/10 360 м -1.0 -1.0 100 -7 -7 980.2
С 2 16 км 10/10 360 м -1.0 -1.0 100 -7 -7 980.2
С 2 16 км 10/10 390 м -1.0 -1.0 100 -8 -8 979.8
С 2 16 км 10/10 1350 м -1.0 -1.0 100 -7 -7 979.8
С 2 16 км 10/10 1380 м -1.0 -1.0 100 -7 -7 979.8
С 2 16 км 10/10 1380 м -1.0 -1.0 100 -7 -7 979.8
С 2 16 км 10/10 360 м -1.0 -1.0 100 -7 -7 979.8
С 2 16 км 10/10 360 м -1.0 -1.0 100 -7 -7 979.8
С 2 16 км 10/10 360 м -1.0 -1.0 100 -7 -7 979.5
С 2 16 км 10/10 330 м -1.0 -1.0 100 -7 -7 979.5
С 2 16 км 10/10 360 м -1.0 -1.0 100 -7 -7 979.2
С 2 16 км 10/10 390 м -1.0 -1.0 100 -7 -7 979.2
С 2 16 км 10/10 390 м -1.0 -1.0 100 -8 -8 979.2
С 2 16 км 10/10 390 м -1.0 -1.0 100 -8 -8 979.2
С 2 16 км 10/10 390 м -2.0 -2.0 100 -9 -9 978.9
С 2 16 км 10/10 390 м -1.0 -1.0 100 -8 -8 978.9
С 2 16 км 10/10 360 м -1.0 -1.0 100 -7 -7 979.2
С 2 16 км 10/10 360 м -1.0 -1.0 100 -7 -7 979.2
С 2 16 км 10/10 360 м -1.0 -1.0 100 -8 -8 978.9
С 2 16 км 10/10 330 м -1.0 -1.0 100 -7 -7 979.2
С 1 16 км 10/10 330 м 0.0 0.0 100 -5 -5 979.2
С 2 16 км 10/10 330 м 0.0 0.0 100 -6 -6 979.5
С 2 16 км 10/10 330 м 0.0 0.0 100 -6 -6 979.2
С 2 16 км 10/10 330 м 0.0 0.0 100 -6 -6 978.9
С 2 16 км 10/10 330 м +1.0 +1.0 100 -5 -5 978.9
С 2 16 км 10/10 360 м +1.0 +1.0 100 -5 -5 978.9
С 2 16 км 10/10 360 м +1.0 +1.0 100 -5 -5 978.5
С 2 16 км 10/10 360 м +2.0 +2.0 100 -3 -3 978.5
С 2 16 км 10/10 390 м +2.0 +2.0 100 -3 -3 978.5
С 2 16 км 10/10 390 м +3.0 +3.0 100 -3 -3 978.5
С 2 16 км 10/10 420 м +3.0 +3.0 100 -3 -3 978.2
С 2 16 км 10/10 420 м +3.0 +3.0 100 -3 -3 978.2
С 2 16 км 10/10 420 м +3.0 +3.0 100 -3 -3 977.9
С 3 16 км 10/10 420 м +3.0 +3.0 100 -3 -3 977.6
С 3 16 км 10/10 450 м +4.0 +4.0 100 -2 -2 977.6
С 2 16 км 10/10 450 м +4.0 +4.0 100 -1 -1 977.3
С 3 16 км 10/10 450 м +5.0 +5.0 100 0 0 976.9
С 3 16 км 10/10 450 м +5.0 +5.0 100 0 0 976.9
С 2
{4}
16 км 10/10 480 м +5.0 +5.0 100 0 0 976.9
С 2 16 км 10/10 510 м +5.0 +5.0 100 0 0 976.9
С 2 16 км 10/10 510 м +5.0 +5.0 100 +1 +1 976.9
С 2 16 км 10/10 510 м +5.0 +5.0 100 +1 +1 976.6
С 2 16 км 10/10 510 м +5.0 +5.0 100 0 0 976.6
Местоположение метеостанции Gwinner-Roger Melroe Field Airport: широта 46.2187 долгота -97.6435 высота над уровнем моря 386 м.
В архиве по умолчанию представлена погода в Гуиннере за последние 1-2 суток. Обновление информации о фактической погоде в базе происходит ежечасно! Архивные данные за месяц целиком и за предыдущие месяцы Вы можете получить, выбрав интересующий диапазон дат из раскрывающегося списка и нажав кнопку "Ввод!".
Внимание! Архив погоды МЕТАР в базе сайта по станциям, не включенным в климатический монитор, хранится не более 60 дней. Нет смысла пытаться выбрать более раннюю дату.
*Определитесь, кто Вы:
Внимание! Время в таблицах - местное (без учета летнего времени). Для получения всемирного времени необходимо вычесть поправку, которая равна -6 ч.
Смотрите также архив погоды в соседних городах и на ближайших метеорологических станциях:
Партнеры нашего сайта:      
Пояснения к столбцам:
  • Ветер - указаны скорость ветра в м/с - средняя за 10 мин, порывы в срок и между сроками (в фигурных скобках) и направление, откуда дует ветер: С - северный,
  • СВ - северо-восточный, В - восточный, ЮВ - юго-восточный, Ю - южный, ЮЗ - юго-западный, З - западный, СЗ - северо-западный.
  • Видимость - горизонтальная дальность видимости в метрах или километрах. При видимости от 1 до 10 км при отсутствии осадков обычно наблюдается дымка, при ухудшении видимости до 1 км и менее - туман. В сухую погоду видимость может ухудшаться дымом, пылью или мглою.
  • Явления - указаны атмосферные явления, наблюдавшиеся в срок или в последний час перед сроком; фигурными скобками обозначены явления, наблюдавшиеся между сроками (за 1-3 часа до срока); квадратными скобками обозначены град или гололедные отложения с указанием их диаметра в мм.
  • Облачность - указаны через наклонную черту общая и нижняя облачность в баллах и высота нижней границы облаков в метрах; квадратными скобками обозначены формы облаков: Ci - перистые, Cs - перисто-слоистые, Cc - перисто-кучевые, Ac - высококучевые, As - высокослоистые, Sc - слоисто-кучевые, Ns - слоисто-дождевые, Cu - кучевые, Cb - кучево-дождевые. Подробнее классификацию облаков см. в Атласе облаков (PDF).
  • T - Температура воздуха - температура, измеренная на высоте 2 м над землей.
  • Td - Температура точки росы - температура, при понижении до которой содержащийся в воздухе водяной пар достигнет насыщения.
  • f - Относительная влажность воздуха - влажноcть воздуха, измеренная на высоте 2 м над землей.
  • Te - Эффективная температура - температура, которую ощущает одетый по сезону человек в тени. Характеристика душности погоды. При расчете учитывается влияние влажности воздуха и скорости ветра на теплоощущения человека.
  • Tes - Эффективная температура на солнце - температура, которую ощущает человек, с поправкой на солнечный нагрев. Характеристика знойности погоды. Зависит от высоты солнца над горизонтом, облачности и скорости ветра. Ночью, в пасмурную погоду, а также при ветре 12 м/с и более поправка равна нулю.
  • P - Атмосферное давление - приведенное к уровню моря атмосферное давление.
  • Po - Атмосферное давление - измеренное на уровне метеостанции атмосферное давление.
  • Tmin - Минимальная температура - минимум температуры воздуха на высоте 2 м над землей.
  • Tmax - Максимальная температура - максимум температуры воздуха на высоте 2 м над землей.
  • R - Количество осадков - Количество выпавших осадков за период времени, мм. При наведении курсора мыши на число - период времени, за который выпало указанное количество осадков.
  • R24 - Количество осадков - Количество выпавших осадков за 24 часа, мм.
  • S - Снежный покров - Высота снежного покрова, см. При наведении курсора мыши на число - состояние снежного покрова и степень покрытия местности в баллах.